Location: Marcé
(47.5801°N, 0.3280°W)
Time: 21:42:42
(UTC+01:00)

Transit 2A - Pass Details

Date: 07 December 2021
Orbit: 591 x 967 km, 66.7° (Epoch: 23 January)

Event Time Altitude Azimuth Distance (km) Brightness Sun altitude
Rises 04:51:07 0° 308° (NW) 3,580 - -36.8°
Reaches altitude 10° 04:55:19 10° 335° (NNW) 2,685 - -36.1°
Maximum altitude 04:58:09 13° 2° (N) 2,484 - -35.6°
Exits shadow 04:58:39 13° 7° (N) 2,493 8.7 -35.5°
Drops below altitude 10° 05:01:00 10° 29° (NNE) 2,715 9.1 -35.1°
Sets 05:05:18 0° 56° (NE) 3,655 10.3 -34.4°
